Flag for U.S.A. Weather past 2 weeks in Pullman, Washington, U.S.A.

Now
57 °F

Sunny.


Feels Like: 57 °F
Forecast: 47 / 67 °F
Wind: No wind

Location: Pullman / Moscow Regional Airport

Current Time: May 25, 2015 at 9:50:04 PM

Latest Report: May 25, 2015 at 8:53 PM


Visibility: 10 mi

Pressure: 29.89 "Hg

Humidity: 74%

Dew point: 49 °F

Location of PullmanLocation

Historic Weather in Pullman — Graph

°F

Pullman temperature yesterday

Maximum temperature yesterday: 72 °F (at 3:53 PM)
Minimum temperature yesterday: 46 °F (at 5:53 AM)
Average temperature yesterday: 60 °F

Past Weeks' High & Low Weather Summary

 TemperatureHumidityPressure
High74 °F (May 21, 1:53 PM)97% (May 17, 2:53 AM)30.07 "Hg (May 17, 2:53 AM)
Low35 °F (May 14, 4:53 AM)26% (May 11, 3:53 PM)29.68 "Hg (May 13, 12:53 AM)
Average57 °F67%29.89 "Hg
* Reported May 10 7:53 PM — May 25 7:53 PM, Pullman, Weather by CustomWeather, © 2015

Note: Actual official high and low records may vary slightly from our data, if they occured in-between our weather recording intervals... More about our weather records

Advertising

Pullman weather history for previous 24 hours

 ConditionsComfort  
Time TempWeatherWind HumidityBarometerVisibility
7:53 PM
Mon, May 25
61 °FSunny.3 mph60%29.88 "Hg10 mi
6:53 PM66 °FSunny.No wind47%29.87 "Hg10 mi
5:53 PM66 °FPassing clouds.3 mph52%29.87 "Hg10 mi
4:53 PM67 °FPartly sunny.No wind53%29.88 "Hg10 mi
3:53 PM65 °FSunny.7 mph56%29.88 "Hg10 mi
2:53 PM63 °FSunny.6 mph60%29.90 "Hg10 mi
1:53 PM62 °FSunny.9 mph62%29.91 "Hg10 mi
12:53 PM62 °FPassing clouds.10 mph62%29.92 "Hg10 mi
11:53 AM60 °FPassing clouds.13 mph62%29.92 "Hg10 mi
10:53 AM59 °FPassing clouds.7 mph64%29.92 "Hg10 mi
9:53 AM57 °FScattered clouds.8 mph72%29.92 "Hg10 mi
8:53 AM56 °FPartly sunny.5 mph72%29.92 "Hg10 mi
7:53 AM55 °FScattered clouds.7 mph74%29.90 "Hg10 mi
6:53 AM53 °FSunny.3 mph74%29.89 "Hg10 mi
5:53 AM52 °FClear.6 mph80%29.88 "Hg10 mi
4:53 AM53 °FClear.6 mph77%29.85 "Hg10 mi
3:53 AM53 °FClear.5 mph80%29.84 "Hg10 mi
2:53 AM55 °FClear.No wind80%29.84 "Hg10 mi
1:53 AM56 °FPartly cloudy.6 mph81%29.85 "Hg10 mi
12:53 AM54 °FClear.No wind86%29.83 "Hg10 mi
11:53 PM
Sun, May 24
56 °FClear.No wind84%29.83 "Hg10 mi
10:53 PM57 °FClear.No wind81%29.85 "Hg10 mi
9:53 PM57 °FClear.No wind81%29.86 "Hg10 mi
Weather by CustomWeather, © 2015

See weather overviewHow to use our weather pages